Flag for U.S.A. Weather past 2 weeks in Madison, Wisconsin, U.S.A.

Now
34 °F

Fog.


Feels Like: 25 °F
Forecast: 34 / 39 °F
Wind: 12 mph from South

Location: Dane County Regional-Truax Field

Current Time: Dec 22, 2014 at 7:55:06 AM

Latest Report: Dec 22, 2014 at 6:58 AM


Visibility: 5 mi

Pressure: 29.87 "Hg

Humidity: 85%

Dew point: 30 °F

Location of MadisonLocation

Historic Weather in Madison — Graph

°F

Madison temperature yesterday

Maximum temperature yesterday: 36 °F (at 1:53 PM)
Minimum temperature yesterday: 30 °F (at 12:53 AM)
Average temperature yesterday: 34 °F

Past Weeks' High & Low Weather Summary

 TemperatureHumidityPressure
High46 °F (Dec 14, 12:53 PM)100% (Dec 14, 5:00 PM)30.65 "Hg (Dec 14, 5:00 PM)
Low15 °F (Dec 18, 5:00 AM)46% (Dec 7, 12:53 PM)29.65 "Hg (Dec 16, 12:53 AM)
Average32 °F85%30.18 "Hg
* Reported Dec 7 6:53 AM — Dec 22 6:58 AM, Madison, Weather by CustomWeather, © 2014

Note: Actual official high and low records may vary slightly from our data, if they occured in-between our weather recording intervals... More about our weather records

Advertising

Madison weather history for previous 24 hours

 ConditionsComfort  
Time TempWeatherWind HumidityBarometerVisibility
6:58 AM
Dec 22
34 °FFog.12 mph85%29.87 "Hg5 mi
5:53 AM34 °FLight rain. Fog.12 mph85%29.90 "Hg5 mi
4:53 AM34 °FFog.15 mph85%29.90 "Hg5 mi
3:53 AM34 °FFog.13 mph85%29.91 "Hg6 mi
2:53 AM34 °FMostly cloudy.15 mph82%29.93 "Hg8 mi
1:53 AM35 °FOvercast.14 mph78%29.94 "Hg9 mi
12:53 AM35 °FOvercast.13 mph78%29.94 "Hg9 mi
11:53 PM
Dec 21
35 °FOvercast.16 mph78%29.96 "Hg10 mi
10:53 PM35 °FMostly cloudy.16 mph78%29.97 "Hg10 mi
9:53 PM35 °FMostly cloudy.13 mph82%29.98 "Hg9 mi
8:53 PM35 °FMostly cloudy.15 mph82%29.98 "Hg8 mi
7:53 PM36 °FMostly cloudy.16 mph79%29.99 "Hg9 mi
6:53 PM36 °FOvercast.14 mph79%29.99 "Hg9 mi
5:53 PM36 °FOvercast.16 mph82%29.99 "Hg8 mi
4:53 PM36 °FMostly cloudy.16 mph82%30.00 "Hg8 mi
3:53 PM36 °FOvercast.17 mph82%29.99 "Hg6 mi
2:53 PM36 °FFog.12 mph85%30.01 "Hg6 mi
1:53 PM36 °FFog.14 mph85%30.01 "Hg6 mi
12:53 PM35 °FFog.15 mph88%30.04 "Hg4 mi
11:53 AM35 °FFog.15 mph85%30.07 "Hg4 mi
10:53 AM34 °FFog.13 mph88%30.11 "Hg3 mi
9:53 AM33 °FFog.12 mph92%30.14 "Hg3 mi
8:57 AM33 °FFog.15 mph88%30.10 "Hg2 mi
7:53 AM32 °FIce fog.13 mph92%30.14 "Hg1 mi
Weather by CustomWeather, © 2014

See weather overviewHow to use our weather pages